Haikou Meilan International

Airport
ICAO code: 
ZJHK
IATA Code: 
HAK
Summary
ICAO Region: 
APAC
Territory: 
Location: 
Haikou, Hainan,
Serving: 
Hainan
Coordinates: 
Aerial View: 
19° 56' 4.999" N, 110° 27' 32" E
Metar
Observation
ZJHK 241700Z 07003MPS 9999 SCT006 BKN008 22/21 Q1013 NOSIG
Station
HAIKOU
Date/Time
2022-01-24 17:00:00
Wind direction
70°
Lowest cloud amount
scattered clouds
Temperature
22°C
Dew point
21°C
Humidity
94%
QNH
1013 hPa
Weather condition
n/a

Description

Haikou Meilan International Airport is the largest and newest airport on the island of Hainan in the People's Republic of China. It is located 25 km southeast of the main provincial city of Haikou.

Climatology

Within the Köppen Climate Classification System, ((Koppen climate classification Cwa)) this climate type generally has warm and humid summers with mild winters. Its extent is from 30 to 50° of latitude mainly on the eastern and western borders of most continents. During the winter, the main weather feature is the mid-latitude cyclone. Convective thunderstorms provide precipitation in the summer months.

Runways

Designator Length Width Surface Rops
9/27 3600 45 CON Yes/Yes
Airport map: 
Aerial View: 

SKYbrary Partners:

Safety knowledge contributed by: